Regional Weather Roundup
Issued by NWS Sterling, VA

Home | Current Version | Previous Version | Graphics & Text | Print | Product List | Glossary On
Versions: 1 2 3 4 5 6 7 8 9 10 11 12 13 14 15 16 17 18 19 20 21 22 23 24 25 26 27 28 29 30 31 32 33 34 35 36 37 38 39 40 41 42 43 44 45 46 47 48 49 50
000
ASUS41 KLWX 212110
RWRLWX

REGIONAL WEATHER ROUNDUP
NATIONAL WEATHER SERVICE BALTIMORE MD/WASHINGTON DC
400 PM EST SUN DEC 21 2014

Note: "FAIR" indicates few or no clouds below 12,000 feet
with no significant weather and/or obstructions to visibility.
 TC=TEMPERATURE CELSIUS

 * =Non NWS site. Station does not report precipitation (e.g. rain,
    snow, etc.), thunder, or fog.

DCZ001-MDZ009-015-VAZ040>042-051-053>054-212200-
WASHINGTON METRO

CITY           SKY/WX    TMP DP  RH WIND       PRES   REMARKS
WASHINGTON NAT PTCLDY    44  24  45 N5        30.29F
DULLES         CLEAR     39  24  55 NE3       30.28S
ANDREWS AFB    PTCLDY    39  24  55 N7        30.27S
FT BELVOIR     CLEAR     42  25  51 S3        30.29S
QUANTICO       CLEAR     43  28  55 E3        30.31R
COLLEGE PARK*  CLEAR     41  25  52 NE5       30.28S
LEESBURG*      CLEAR     39  30  70 MISG      30.28S
MANASSAS*      CLEAR     43  27  52 N5        30.28R
GAITHERSBURG*  CLEAR     37  21  52 NW5       30.30S

$$

MDZ006>007-011-014-212200-
BALTIMORE METRO

CITY           SKY/WX    TMP DP  RH WIND       PRES   REMARKS
BWI AIRPORT    PTCLDY    41  23  48 W3        30.27F
MD SCIENCE CTR   N/A     41  23  48 MISG      30.27R
MARTIN STATE   CLEAR     39  28  65 SE6       30.31R
ANNAPOLIS      CLEAR     40  23  50 NW3       30.29S
FORT MEADE*    CLEAR     37  23  56 CALM      30.31S

$$

MDZ012-015-019>023-212200-
MARYLAND EASTERN SHORE

CITY           SKY/WX    TMP DP  RH WIND       PRES   REMARKS
OCEAN CITY     CLEAR     40  28  62 E5        30.29S
SALISBURY      CLEAR     43  26  51 N5        30.28F
BAY BRIDGE AP*   N/A     37  23  56 CALM      30.30S
CAMBRIDGE*     CLEAR     41  27  56 NW5       30.29S
EASTON*        CLEAR     39  27  60 VRB5      30.32F

$$

MDZ017>025-212200-
SOUTHERN MARYLAND

CITY           SKY/WX    TMP DP  RH WIND       PRES   REMARKS
PATUXENT RIVER CLEAR     39  27  62 NE8       30.28F
ST INIGOES     CLEAR     41  26  55 NE3       30.28S
LEONARDTOWN*   CLEAR     39  28  65 E3        30.30R

$$

MDZ003>005-212200-
NORTH CENTRAL MARYLAND

CITY           SKY/WX    TMP DP  RH WIND       PRES   REMARKS
FREDERICK*     CLEAR     41  21  45 CALM      30.31S
HAGERSTOWN APT CLEAR     38  21  50 NE6       30.26F
WESTMINSTER*   CLEAR     36  21  55 NE6       30.26S

$$

MDZ501>502-212200-
WESTERN MARYLAND

CITY           SKY/WX    TMP DP  RH WIND       PRES   REMARKS
OAKLAND*       PTCLDY    32  27  80 CALM      30.15R
CUMBERLAND*    CLEAR     41  27  56 CALM      30.28R

$$

VAZ025>031-212200-
SHENANDOAH VALLEY

CITY           SKY/WX    TMP DP  RH WIND       PRES   REMARKS
WINCHESTER*    CLEAR     41  23  48 SE3       30.25S
FRONT ROYAL*   FAIR      39  27  60 NE3       30.25R
LURAY*         FAIR      45  30  57 CALM      30.24R
NEW MARKET*    FAIR      42  28  57 N3        30.24R
STAUNTON*      CLEAR     43  27  52 CALM      30.24R
WAYNESBORO*    FAIR      40  27  57 SE7       30.22R

$$

WVZ021-048>050-054>055-212200-
EASTERN WEST VIRGINIA PANHANDLE

CITY           SKY/WX    TMP DP  RH WIND       PRES   REMARKS
MARTINSBURG    CLEAR     40  21  46 NE5       30.26F
PETERSBURG*    CLEAR     44  26  48 CALM      30.23R

$$

VAZ036>039-050-212200-
CENTRAL FOOTHILLS

CITY           SKY/WX    TMP DP  RH WIND       PRES   REMARKS
CHARLOTTESVILL CLEAR     43  27  53 CALM      30.26R
CULPEPER*      CLEAR     45  28  53 CALM      30.28R
ORANGE*        CLEAR     43  28  56 CALM      30.29R
GORDONSVILLE*  FAIR      42  27  54 CALM      30.27R
WARRENTON*     FAIR      43  32  64 CALM      30.28R

$$

VAZ055>057-212200-
NORTH AND CENTRAL PIEDMONT

CITY           SKY/WX    TMP DP  RH WIND       PRES   REMARKS
FREDERICKSBRG* CLEAR     44  28  53 SE5       30.28R
STAFFORD*      CLEAR     42  25  50 E5        30.33R

$$

NCZ024-NYZ072-PAZ021-071-VAZ022-071-212200-
OTHER REGIONAL OBSERVATIONS

CITY           SKY/WX    TMP DP  RH WIND       PRES   REMARKS
NEW YORK CITY  CLOUDY    35  27  72 NW5       30.31R
PHILADELPHIA   PTCLDY    38  22  52 N8        30.30S
PITTSBURGH     MOCLDY    33  22  63 N3        30.23S
ROANOKE        MOCLDY    45  29  53 SE10      30.23S
RICHMOND       PTCLDY    45  26  47 CALM      30.28R
RALEIGH        PTSUNNY   48  34  58 NE8       30.23F

$$

ANZ530>537-212200-
MARINE OBSERVATIONS

STATION/POSITION TIME  TEMP    WIND        PRES
                       AIR SEA DIR/SP/G
                 (UTC) (F)     (DEG/KT/KT) (MB)
THOMAS PT LIGHT  2100   38 41   60/  5/  5 1026.7F
BALT KEY BRIDGE  2100   41     230/  1/  2 1025.4F
COVE POINT       2100   37      60/  7/  8 1025.3F
LEWISETTA        2100   38 41  110/  6/  7 1025.3R
SOLOMONS ISLAND  2100      43                N/A

$$




USA.gov is the U.S. government's official web portal to all federal, state and local government web resources and services.